Location: Syracuse
(43.0480°N, 76.1480°W)
Time: 00:58:09
(UTC-05:00)

Daily predictions for brighter satellites

Satellite Brightness Start Highest point End
(mag) Time Altitude Azimuth Time Altitude Azimuth Time Altitude Azimuth
CZ-3 R/B 4.3 03:05:09 50° SSW 03:06:44 50° S 03:18:00 10° ESE
ADEOS II 4.1 03:28:14 10° NNE 03:29:58 21° NNE 03:29:58 21° NNE
Okean O Rocket 2.9 03:57:23 10° NNE 04:01:00 38° ENE 04:01:00 38° ENE
Cosmos 1980 Rocket 2.4 04:12:53 63° SSE 04:13:31 69° ESE 04:19:09 10° NNE
Cosmos 1821 Rocket 3.8 04:13:54 70° S 04:14:43 90° WNW 04:21:00 10° N
ATLAS 5 CENTAUR R/B 3.3 04:18:04 24° SSE 04:19:37 30° ESE 04:23:48 10° NE
PAYLOAD B 4.4 04:16:08 10° NNE 04:21:39 68° ESE 04:24:12 32° S
MOS 1-B 4.2 04:16:53 10° N 04:22:30 71° WNW 04:22:30 71° WNW
Cosmos 1535 Rocket 4.3 04:25:29 44° SSW 04:27:36 85° W 04:33:45 10° N
Cosmos 1048 Rocket 4.2 04:24:54 10° NNW 04:30:03 69° ENE 04:35:08 10° SSE
Cosmos 372 Rocket 4.0 04:32:35 45° S 04:34:08 74° ESE 04:39:16 10° NNE
IDEFIX/ARIANE 42P 4.3 04:32:15 10° NNE 04:36:56 32° E 04:41:34 10° SSE
SJ 16-02 1.2 04:39:17 79° NNW 04:39:17 79° NNW 04:43:30 10° NNE
BREEZE-M DEB (TANK) 3.1 04:39:13 42° NNE 04:39:24 42° NNE 04:45:11 10° E
Cosmos 1733 Rocket 4.2 04:37:15 10° N 04:41:27 43° ENE 04:45:38 10° SSE
Cosmos 1697 Rocket 3.1 04:43:04 42° NW 04:43:04 42° NW 04:48:07 10° NNE
USA 215 4.1 04:40:16 10° S 04:44:59 31° SW 04:44:59 31° SW
Cosmos 1125 Rocket 3.3 04:46:13 39° SSW 04:48:14 85° WNW 04:53:29 10° NNE
SL-16 R/B 3.2 04:45:40 10° S 04:51:02 46° ESE 04:56:26 10° NE
Meteor 1-31 Rocket 2.7 04:47:58 10° N 04:51:27 66° NNW 04:51:27 66° NNW
Hubble Space Telescope 3.3 04:53:33 10° S 04:53:33 10° S 04:54:12 10° S
Cosmos 1933 3.2 04:52:46 58° SSW 04:53:30 81° W 04:57:35 10° N
SJ-6F 4.2 04:50:25 10° N 04:54:31 81° WNW 04:55:44 45° SSW
COSMO-SKYMED 1 3.5 04:52:01 10° SSE 04:56:12 49° ENE 05:00:25 10° N
Cosmos 1605 Rocket 3.8 04:54:17 10° S 05:00:23 80° W 05:06:31 10° N
CZ-2C R/B 4.0 04:56:59 10° NNE 05:01:46 38° E 05:06:34 10° SSE
Okean-O 4.0 04:57:37 10° NNE 05:01:49 40° E 05:05:58 10° SSE
Meteor PRIRODA 4.4 04:59:54 10° N 05:02:36 38° NNW 05:02:36 38° NNW
Aureole 3 4.2 05:03:15 10° N 05:06:04 37° E 05:09:02 10° SSE
CZ-2C R/B 3.6 05:06:33 10° SSE 05:11:13 82° WSW 05:15:50 10° NNW
ADEOS II 4.0 05:09:46 10° NNW 05:10:56 13° NW 05:10:56 13° NW
Meteor 1-26 Rocket 4.4 05:07:16 10° S 05:13:08 80° E 05:18:58 10° NNE
COSMOS 2455 2.9 05:07:45 10° NW 05:13:38 57° WSW 05:19:30 10° S
CZ-4B R/B 3.4 05:11:12 10° N 05:16:27 50° WNW 05:21:43 10° SW
Cosmos 1707 Rocket 4.3 05:17:08 32° WNW 05:17:09 32° WNW 05:21:12 10° N
Cosmos 1606 4.1 05:14:08 10° SSE 05:17:42 39° E 05:21:16 10° NNE
Cosmos 494 Rocket 4.1 05:17:18 10° NNW 05:22:27 75° ENE 05:27:33 10° SSE
Cosmos 1633 3.2 05:19:52 10° N 05:23:30 58° E 05:27:06 10° SSE
Cosmos 1437 Rocket 4.3 05:21:07 10° N 05:24:57 39° ENE 05:28:41 10° SE
SKYMED 3 4.4 05:21:49 10° S 05:26:09 78° WSW 05:30:30 10° NNW
IRS-1C Rocket 4.3 05:22:22 10° N 05:27:26 49° WNW 05:32:29 10° SW
Cosmos 2263 Rocket 2.2 05:22:39 10° NNW 05:28:21 85° ENE 05:34:03 10° SSE
Cosmos 1459 Rocket 4.4 05:23:17 10° S 05:29:29 69° E 05:35:48 10° NNE
Cosmos 2173 Rocket 4.3 05:26:52 10° S 05:33:00 72° E 05:39:06 10° NNE
Cosmos 1269 Rocket 4.4 05:29:58 10° NW 05:34:54 41° WSW 05:39:49 10° S
Okean O Rocket 2.9 05:34:23 10° NNW 05:37:42 21° WNW 05:38:29 20° W
Cosmos 405 Rocket 3.1 05:34:59 10° SSW 05:38:45 42° WNW 05:42:26 10° N
Cosmos 1802 Rocket 4.4 05:34:34 10° S 05:40:55 71° E 05:47:13 10° NNE
Meteor 1-14 Rocket 4.3 05:35:40 10° NNW 05:41:37 71° W 05:47:28 10° S
Cosmos 2061 Rocket 4.3 05:35:30 10° S 05:41:38 72° E 05:47:50 10° NNE
Radarsat Rocket 4.0 05:37:30 10° NNE 05:43:22 88° ESE 05:49:38 10° SSW
SKYMED 2 3.7 05:40:01 10° S 05:44:13 49° W 05:48:27 10° NNW
Cosmos 2322 Rocket 2.2 05:42:12 10° SW 05:47:50 65° WNW 05:53:31 10° NNE
PAYLOAD A 3.9 05:44:07 10° N 05:48:49 57° WNW 05:53:39 10° SSW
Cosmos 405 4.3 05:49:02 10° NW 05:51:42 20° W 05:54:22 10° SW
NOAA 6 4.2 05:46:56 10° N 05:51:57 53° WNW 05:56:55 10° SW
ISS -0.9 05:51:29 10° S 05:53:33 16° SE 05:55:39 10° E
Sich 1 Rocket 3.7 05:49:10 10° N 05:53:35 82° E 05:57:58 10° S
Cosmos 2360 Rocket 2.7 05:49:49 10° S 05:55:24 64° ESE 06:01:01 10° NNE
DMSP B5D1-3 4.5 05:52:08 10° S 05:57:11 66° WSW 06:02:16 10° NNW
Cosmos 1980 Rocket 3.5 05:54:41 13° W 05:58:03 21° NW 06:02:18 10° N
EO 1 Del DPAF 3.2 05:57:28 10° S 06:01:15 60° WSW 06:05:04 10° NNW
Landsat 4 4.0 05:58:55 10° S 06:02:29 43° W 06:06:03 10° NNW
Cosmos 1703 Rocket 3.6 05:58:28 10° S 06:02:57 81° W 06:07:28 10° N
Meteor 1-25 Rocket 4.4 05:57:32 10° NNW 06:03:04 51° W 06:08:38 10° SSW
Cosmos 1461 3.2 05:58:52 10° SSW 06:03:11 78° ESE 06:07:45 10° NE
ATLAS 5 CENTAUR R/B 2.4 05:59:49 10° WSW 06:04:06 37° NW 06:08:50 10° NNE
Okean 2 Rocket 4.2 05:59:43 10° N 06:04:06 49° ENE 06:08:28 10° SSE
Lacrosse 4 Rocket 3.5 06:07:34 10° S 06:11:09 31° ESE 06:14:44 10° NE
Cosmos 1908 Rocket 3.9 06:11:59 10° NNW 06:16:07 41° W 06:20:12 10° SSW
IDEFIX/ARIANE 42P 3.2 06:11:52 10° N 06:16:29 33° WNW 06:21:05 10° SW
Aureole 2 Rocket 1.8 06:15:18 10° SSW 06:17:57 55° WNW 06:20:40 10° NNE
Meteor 1-11 Rocket 4.3 06:14:08 10° N 06:20:04 71° E 06:26:01 10° SSE
Cosmos 2251 Rocket 3.7 06:17:16 10° NNW 06:22:25 54° WSW 06:27:35 10° S
